Dewpoint
-0 -1 -0 -2 -2 -1 -1 -1 -0 -0 0 0 0 0 -0 -0 0 -1 -1 -2 0 1 0 2 2 2 -0 -0 1 1 2 2 3 4 5 4 5 5 5 4 5 5 5 6 3 6 6 -2 -3 1 1 -5 -4 -1
-0 -0 -1 -2 -2 -2 -1 -0 -1 -1 -0 0 0 -0 0 -0 0 -0 -1 -1 -2 -1 1 1 1 3 3 -0 -1 -0 -1 2 2 5 4 3 5 3 4 6 2 6 4 5 4 6 2 -3 -2 -4 -5 -6 -4 -2
0 0 -0 -0 -0 -1 -1 -1 0 0 1 0 -0 1 0 -0 -0 -1 -2 -3 -4 -3 -2 -1 -0 1 3 2 -1 0 0 -1 0 0 4 5 4 3 5 4 3 2 0 4 3 2 1 -2 -4 -3 -4 -5 -3 -2
-0 -0 0 0 0 0 -0 0 1 1 0 -0 -0 -0 -0 -0 -1 -1 -2 -3 -4 -2 -0 -0 3 2 3 3 2 -0 -0 -1 3 4 4 4 5 3 5 4 4 3 2 2 2 1 3 0 -1 -2 -2 -3 -3 -2
-1 -1 -0 -0 -0 0 1 0 0 -0 -0 -0 -0 -0 -1 -1 -1 -1 -3 -3 -4 -2 2 1 -1 -2 0 4 4 2 -0 3 3 4 3 5 3 3 2 3 3 2 2 4 4 -1 -1 -2 -3 -2 -2 -3 -2 -2
-4 -1 -1 -1 -1 -0 -0 -1 -0 -0 -0 -0 -1 -1 -1 -2 -2 -4 -3 -5 -2 -4 1 2 1 1 2 5 5 5 2 2 4 4 3 3 4 4 5 5 2 0 -0 -1 -0 -3 -2 -3 -2 -1 -2 -2 -1 -1
-4 -5 -5 -2 -2 -2 -1 -1 -1 -1 -1 -1 -2 -3 -5 -5 -4 -2 -1 -3 -2 1 1 1 2 3 4 6 7 7 5 5 4 4 4 4 5 4 3 5 0 -0 0 1 -0 -1 0 -1 -0 -0 -0 -0 1 1
-2 -3 -5 -6 -6 -5 -5 -5 -5 -5 -5 -5 -6 -6 -5 -3 -2 -0 1 -1 -2 1 1 1 2 3 5 5 6 6 7 6 5 4 4 4 4 2 4 1 0 0 1 1 0 0 -1 -1 -0 0 1 1 1 1
-1 -2 -2 -4 -4 -5 -4 -4 -4 -4 -4 -3 -3 -2 -1 -1 -0 -1 -1 1 1 0 0 1 2 5 4 4 5 5 5 5 4 4 4 4 4 6 3 2 2 2 2 1 2 2 1 0 0 1 1 1 1 0
-3 -1 -1 -2 -4 -5 -5 -5 -6 -5 -4 -2 -2 -1 -1 -1 -2 -2 0 0 1 2 1 2 3 4 4 2 2 3 3 4 6 4 3 4 5 2 2 2 3 3 2 2 1 1 1 0 0 -0 -1 -1 -0 -1
-4 -1 -1 -2 -2 -4 -5 -7 -6 -3 -1 -0 0 -0 -1 -0 -0 0 0 1 2 2 2 2 3 4 4 3 3 3 3 2 6 5 5 5 5 2 2 3 2 2 2 1 1 1 1 0 -0 -0 -1 -1 -1 -2
-3 -0 -1 -0 -1 -2 -3 -3 -1 -0 0 0 -0 -1 1 1 1 1 1 0 1 3 2 2 2 4 3 3 2 2 3 2 6 2 5 6 2 1 2 2 2 1 1 2 2 2 2 1 -0 0 -1 -1 -2 -2
-2 -1 -1 -1 -0 -1 -1 0 0 0 1 1 -0 1 1 -0 2 2 3 3 2 0 1 2 2 3 3 2 1 2 3 4 2 4 3 2 -0 -0 0 1 2 2 2 3 2 2 1 0 -0 -1 -1 -1 -2 -2
-3 -2 -2 -2 -1 -0 0 0 -1 0 -0 -0 -0 0 -0 -1 -1 -0 -0 0 -1 -0 0 2 1 1 2 1 1 3 2 1 3 3 2 -0 -1 -1 -0 -0 0 0 1 1 1 -1 -1 -2 -2 -2 -1 -2 -3 -3
-5 -2 -1 -1 -1 -0 -0 -0 -1 -1 -1 -1 -2 -0 -1 -1 -2 -2 -2 -1 -1 -0 1 1 1 1 1 2 1 2 3 1 0 -0 -1 -2 -2 -1 -1 -1 -1 -2 -2 -2 -2 -2 -2 -2 -2 -3 -3 -4 -4 -5
-4 -3 -3 -3 -2 -2 -1 -1 -0 -2 -2 -3 -6 -4 -4 -3 -4 -4 -5 -3 -1 0 1 0 1 1 0 -1 -2 -3 -1 -2 -3 -4 -3 -3 -3 -3 -3 -2 -2 -2 -2 -2 -3 -3 -3 -3 -4 -5 -6 -6 -5 -6
-0 0 -3 -3 -3 -2 -3 -0 -2 -3 -3 -3 -4 -6 -6 -6 -6 -6 -6 -5 -1 -1 -1 -2 -4 -4 -4 -4 -5 -6 -6 -6 -7 -6 -4 -4 -4 -4 -4 -4 -4 -3 -4 -4 -4 -4 -4 -5 -5 -6 -6 -8 -8 -8
0 0 -2 -1 -1 -1 -2 -3 -4 -4 -4 -5 -6 -7 -7 -8 -8 -7 -7 -5 -2 -3 -5 -5 -7 -7 -7 -7 -7 -8 -9 -9 -7 -8 -7 -5 -5 -4 -4 -4 -4 -4 -4 -5 -5 -6 -6 -6 -7 -8 -8 -9 -9 -10
0 0 -1 -0 -0 -1 -2 -2 -5 -6 -6 -7 -8 -8 -10 -10 -10 -10 -9 -9 -9 -8 -9 -10 -9 -9 -9 -10 -10 -10 -10 -9 -8 -10 -8 -7 -6 -6 -5 -5 -5 -6 -6 -6 -7 -7 -8 -8 -8 -9 -9 -9 -9 -10
-0 -0 -0 0 -0 -1 -3 -4 -5 -6 -6 -8 -9 -11 -11 -11 -11 -11 -12 -12 -12 -11 -10 -10 -10 -11 -11 -11 -11 -11 -11 -8 -8 -9 -10 -9 -8 -7 -7 -8 -8 -8 -8 -8 -9 -9 -9 -10 -10 -10 -10 -10 -11 -11
-0 -1 -1 -3 -4 -3 -3 -3 -3 -4 -4 -6 -7 -10 -11 -13 -13 -13 -13 -13 -13 -11 -11 -11 -12 -12 -12 -12 -11 -11 -10 -9 -10 -11 -11 -11 -10 -9 -9 -9 -9 -9 -10 -10 -10 -11 -11 -11 -12 -12 -12 -12 -12 -13
-2 -6 -7 -8 -7 -7 -6 -5 -4 -5 -7 -6 -5 -6 -7 -9 -11 -13 -14 -13 -12 -12 -12 -12 -12 -12 -12 -12 -11 -11 -11 -10 -10 -10 -10 -10 -10 -10 -11 -11 -10 -11 -12 -12 -12 -12 -12 -12 -13 -13 -14 -16 -18 -20
-13 -13 -11 -10 -9 -9 -8 -7 -7 -7 -9 -8 -7 -8 -10 -10 -12 -15 -12 -13 -13 -13 -13 -13 -13 -12 -12 -12 -11 -11 -11 -11 -12 -12 -12 -12 -12 -13 -13 -14 -14 -15 -16 -19 -21 -23 -25 -26 -27 -27 -27 -27 -27 -27
-14 -11 -9 -9 -9 -10 -8 -8 -8 -8 -8 -9 -9 -8 -9 -11 -13 -14 -13 -13 -14 -13 -13 -12 -12 -12 -12 -13 -13 -13 -13 -13 -14 -16 -18 -19 -20 -23 -24 -24 -25 -25 -25 -26 -26 -26 -26 -27 -27 -27 -26 -26 -25 -25
-10 -8 -9 -11 -9 -11 -13 -12 -11 -10 -10 -10 -10 -9 -12 -13 -14 -14 -13 -13 -14 -14 -14 -13 -14 -15 -16 -16 -16 -16 -16 -18 -18 -19 -21 -23 -24 -24 -24 -24 -24 -25 -25 -25 -26 -27 -26 -26 -26 -26 -25 -24 -23 -23
-9 -7 -8 -11 -10 -9 -11 -10 -11 -12 -12 -12 -11 -12 -15 -16 -16 -14 -13 -14 -14 -14 -14 -14 -14 -14 -15 -16 -16 -16 -17 -17 -19 -20 -22 -23 -24 -24 -25 -25 -25 -25 -28 -28 -28 -27 -26 -26 -25 -25 -24 -23 -22 -22
-9 -11 -9 -9 -8 -9 -11 -11 -11 -13 -12 -11 -14 -17 -18 -17 -16 -14 -14 -14 -14 -14 -15 -17 -17 -16 -15 -16 -17 -18 -18 -20 -21 -22 -23 -24 -24 -25 -27 -27 -27 -28 -28 -27 -27 -27 -27 -26 -25 -25 -24 -24 -23 -22
-9 -10 -13 -11 -11 -11 -15 -16 -16 -14 -14 -12 -16 -18 -19 -19 -16 -16 -15 -15 -14 -15 -15 -15 -17 -19 -17 -17 -19 -21 -22 -22 -22 -23 -23 -24 -27 -29 -29 -29 -28 -27 -27 -27 -26 -26 -25 -25 -25 -24 -24 -24 -24 -24
-9 -10 -12 -14 -12 -12 -13 -14 -14 -14 -14 -15 -19 -19 -17 -17 -17 -16 -15 -15 -15 -15 -15 -16 -16 -17 -19 -20 -20 -20 -20 -21 -23 -25 -28 -30 -30 -28 -28 -27 -27 -26 -25 -25 -25 -24 -24 -24 -24 -24 -24 -24 -24 -24
-11 -11 -11 -12 -16 -15 -15 -15 -15 -16 -16 -17 -17 -17 -17 -17 -17 -16 -16 -16 -16 -16 -17 -18 -19 -20 -20 -19 -18 -19 -21 -24 -28 -29 -29 -28 -27 -26 -26 -25 -25 -25 -25 -25 -24 -24 -24 -24 -24 -24 -24 -24 -24 -24
-10 -12 -11 -11 -13 -14 -16 -17 -17 -17 -17 -17 -18 -18 -18 -18 -18 -17 -17 -17 -17 -17 -17 -17 -17 -17 -17 -20 -22 -24 -28 -28 -27 -27 -26 -26 -26 -25 -25 -25 -25 -25 -25 -25 -25 -25 -25 -25 -25 -25 -25 -25 -25 -25
-11 -12 -12 -14 -13 -14 -13 -12 -14 -15 -15 -17 -17 -17 -17 -18 -18 -18 -18 -18 -18 -18 -17 -17 -18 -20 -22 -26 -29 -28 -27 -26 -26 -27 -27 -26 -26 -25 -25 -25 -25 -25 -24 -25 -25 -25 -25 -25 -25 -25 -25 -25 -25 -25
-11 -11 -12 -12 -13 -14 -13 -12 -13 -14 -14 -15 -16 -16 -16 -17 -18 -18 -18 -18 -19 -22 -24 -25 -26 -29 -29 -28 -27 -27 -27 -27 -27 -28 -27 -27 -26 -26 -26 -25 -25 -24 -24 -25 -25 -26 -26 -26 -26 -26 -26 -26 -26 -26
Wind_Speed
13 17 10 27 22 27 31 35 37 39 50 48 67 57 60 62 68 47 30 33 30 6 3 5 15 8 20 32 11 8 7 8 2 5 3 3 4 6 4 2 5 7 8 4 3 2 6 11 8 10 7 4 10 21
10 9 15 23 25 26 34 33 36 40 43 64 61 56 60 61 62 48 27 25 21 22 2 9 12 10 9 33 32 28 11 10 13 4 3 2 3 2 5 5 1 4 6 7 9 7 3 26 8 24 8 7 10 26
16 10 21 22 27 30 32 32 35 42 56 57 51 63 64 59 56 50 29 32 21 11 23 21 18 12 14 27 39 17 15 15 14 12 5 3 4 4 4 6 3 3 4 4 3 6 8 18 24 13 17 13 12 26
25 36 28 25 32 29 30 37 49 51 47 51 54 51 56 52 45 44 27 20 24 5 4 8 3 14 17 21 30 39 10 29 9 14 4 3 3 7 3 2 4 4 7 6 3 4 2 16 24 22 19 16 16 23
28 31 34 40 45 49 51 45 40 45 52 53 50 49 45 41 38 33 29 28 22 19 4 11 18 23 21 21 27 32 37 21 17 4 2 3 4 4 0 2 3 7 7 5 7 16 13 17 33 26 23 21 22 28
28 30 31 33 36 39 40 44 48 47 44 45 42 40 34 29 29 25 10 24 24 37 6 4 10 11 11 17 26 31 34 33 18 5 4 4 4 6 5 5 4 22 17 16 5 10 20 11 17 28 26 26 26 28
23 25 27 31 33 34 36 39 41 40 40 37 33 31 30 32 32 18 8 12 30 21 3 2 4 4 8 9 19 19 29 24 20 11 6 3 3 3 1 5 5 19 29 23 18 13 8 14 12 23 24 27 26 25
19 22 24 27 30 32 34 35 35 35 34 33 32 32 31 29 23 13 9 18 25 10 3 2 3 5 6 5 4 13 15 16 13 10 4 3 3 1 4 5 12 10 15 16 16 20 15 20 18 27 26 27 28 29
24 23 22 25 29 32 35 37 38 38 36 36 37 34 26 19 15 18 4 15 27 5 8 4 3 3 2 3 3 3 7 3 4 3 3 7 3 6 3 3 11 17 18 17 23 15 13 23 28 28 30 29 31 31
21 20 21 26 29 29 30 32 32 36 35 34 34 17 7 16 13 16 5 8 16 7 9 3 6 2 1 2 2 2 5 4 4 2 11 4 4 2 5 7 7 11 9 13 16 10 14 20 26 28 27 24 24 29
20 25 26 27 27 30 33 35 34 35 34 28 6 3 21 23 19 5 4 7 7 2 7 6 12 2 1 2 2 3 1 1 4 4 5 3 2 2 5 3 5 8 8 12 9 7 13 16 26 29 26 26 27 28
23 26 25 25 26 31 34 34 32 32 8 6 11 20 23 6 4 3 4 3 4 5 4 4 6 5 3 3 3 3 2 2 5 6 3 3 3 7 2 7 7 7 8 7 6 6 5 15 24 24 25 26 28 28
23 25 23 23 28 36 40 24 11 14 17 17 6 5 2 2 3 4 6 3 3 1 0 3 2 5 5 3 2 2 1 2 1 3 3 3 5 6 6 8 8 6 5 8 11 15 16 21 21 24 27 25 26 27
22 22 21 21 23 29 31 9 4 14 5 2 2 5 3 2 2 1 2 1 1 0 3 5 4 3 4 3 1 2 0 1 1 3 3 3 6 5 5 7 10 10 7 9 15 20 23 24 25 24 25 27 28 29
18 20 20 19 17 17 20 8 14 8 3 3 5 4 3 5 9 9 8 3 10 6 4 6 4 5 3 3 3 3 4 5 6 4 4 14 7 8 9 10 13 16 17 20 21 23 23 23 25 27 25 24 23 23
14 12 16 14 14 11 11 15 7 13 5 6 11 6 11 4 9 13 15 12 15 9 6 7 4 4 6 3 5 6 3 5 4 6 19 11 12 10 10 12 14 14 14 16 18 20 23 24 25 26 25 21 16 16
17 12 19 18 11 8 9 3 7 9 9 7 6 27 17 6 7 11 15 20 12 5 3 3 6 6 3 4 5 5 4 5 18 19 18 13 12 13 15 17 17 17 20 22 22 22 23 22 21 21 20 18 16 13
17 20 17 17 18 11 15 9 6 9 9 11 5 13 16 18 18 19 24 24 7 6 6 5 5 8 5 4 3 5 7 18 13 18 24 23 18 19 20 21 21 21 22 21 20 20 18 17 18 17 17 14 12 11
30 33 27 27 22 7 5 6 7 7 13 7 13 12 17 20 29 27 23 22 26 18 11 7 7 4 4 5 7 14 16 12 10 20 25 24 23 23 23 22 21 20 20 20 18 18 17 15 14 12 11 9 7 7
38 25 21 16 14 6 6 7 7 9 5 5 9 23 21 19 25 32 37 33 25 11 11 6 5 8 6 11 11 11 10 9 13 23 27 27 24 22 22 21 22 20 21 20 20 18 17 17 14 11 8 6 4 2
20 18 21 24 23 12 8 6 8 8 9 6 7 12 14 29 37 33 33 28 24 10 8 13 13 14 13 14 17 20 23 22 25 25 21 26 25 26 25 23 21 21 22 21 20 18 16 16 12 8 6 4 3 4
29 19 10 8 8 8 10 12 8 7 6 5 5 7 7 6 9 17 19 20 11 17 11 14 15 16 20 22 23 24 24 26 27 27 26 25 28 27 26 24 21 22 22 20 17 15 13 11 8 7 6 6 7 8
16 8 7 8 7 7 4 9 6 7 4 3 5 5 5 6 7 10 8 10 9 14 13 14 16 19 22 23 23 25 24 25 28 28 26 26 25 23 21 20 18 17 16 16 13 11 10 10 9 9 10 10 10 11
9 8 8 8 10 3 5 7 6 5 6 4 3 3 4 5 6 8 4 5 12 14 14 13 13 17 19 21 24 23 22 20 22 23 22 19 20 21 19 18 17 16 16 14 12 12 11 12 13 13 14 14 15 15
8 12 8 7 8 6 6 5 5 5 4 4 4 4 2 4 3 3 2 2 10 13 14 14 15 17 19 20 19 19 16 15 16 19 20 18 16 15 15 14 14 14 13 11 13 14 14 15 15 16 16 16 16 16
8 12 6 4 4 5 2 4 4 2 3 4 4 3 4 4 4 3 2 2 5 8 9 10 10 11 14 14 14 14 14 13 12 14 16 14 13 13 13 12 13 13 15 15 16 16 16 16 16 16 15 16 17 18
6 5 9 9 6 8 7 9 7 6 5 4 2 3 3 4 2 3 3 3 4 7 9 9 8 8 11 12 13 13 11 9 10 13 13 12 12 14 14 14 15 16 16 16 16 17 17 18 17 18 18 18 19 20
7 8 5 8 11 12 4 4 4 3 2 3 4 5 4 4 2 3 4 8 7 7 7 7 8 9 8 8 8 8 8 9 10 10 11 12 13 14 14 14 13 13 14 16 16 17 17 17 17 18 18 18 19 18
9 6 7 9 8 9 9 4 3 3 3 3 4 2 3 4 7 10 11 7 5 2 2 3 4 6 6 6 5 5 6 7 8 9 11 12 11 12 12 13 13 13 13 13 14 15 15 16 16 17 17 18 18 18
6 6 7 7 5 4 7 6 9 10 10 11 10 14 15 13 11 11 8 6 2 1 2 4 4 5 3 2 3 4 6 9 11 11 11 12 12 12 12 12 13 14 15 15 15 14 15 15 15 15 15 15 16 16
6 5 7 7 6 6 19 22 20 19 19 15 19 19 14 9 11 10 8 6 4 2 3 2 1 0 2 4 5 7 8 10 10 10 10 11 11 11 12 13 15 15 15 14 15 15 15 15 15 15 15 15 15 16
6 6 7 4 5 17 5 3 4 5 4 4 5 6 6 5 6 9 7 5 4 3 1 1 1 3 5 6 7 7 8 9 11 11 12 12 12 13 13 14 14 14 13 13 13 14 14 14 14 15 15 15 16 16
13 16 14 8 6 6 5 3 3 4 4 3 3 3 2 3 3 8 8 6 4 2 1 2 3 4 6 6 7 8 9 11 12 12 12 13 13 14 16 15 14 13 13 13 13 13 13 14 14 15 15 15 16 16
Wind_Direction
335 9 101 165 162 164 166 170 173 180 181 184 183 185 181 183 183 181 188 199 198 157 232 244 211 176 175 189 186 159 156 230 91 167 165 194 202 212 132 218 200 163 157 174 121 114 254 155 123 174 208 198 225 195
38 64 118 147 154 157 158 163 168 173 177 177 182 176 181 185 185 187 169 174 198 216 263 334 249 230 227 183 181 175 185 158 181 162 179 109 200 255 148 224 180 233 198 181 190 203 196 183 202 203 194 216 213 198
83 92 123 134 143 147 153 160 168 168 176 177 174 170 172 180 179 183 187 196 198 225 271 300 267 240 223 198 199 184 207 193 191 198 170 171 207 141 157 221 210 245 181 193 125 206 214 210 217 216 223 227 230 199
74 86 121 140 137 143 155 155 164 168 167 164 169 172 175 171 180 187 180 188 199 183 231 262 188 239 231 217 207 210 222 214 214 192 181 153 173 188 218 210 184 195 151 167 266 264 301 240 223 224 217 212 200 188
79 90 93 105 121 133 146 144 146 151 159 163 166 160 165 172 174 186 198 211 213 194 204 278 274 273 272 224 211 211 212 221 215 205 147 210 136 137 84 136 234 188 179 179 212 208 194 225 223 212 207 200 194 189
78 88 100 109 115 121 132 143 147 154 158 162 163 161 161 167 170 169 193 205 204 211 312 346 315 272 238 223 212 209 212 219 217 194 196 217 178 168 186 203 228 214 217 219 244 224 219 237 207 203 200 194 192 191
94 99 103 109 116 123 132 137 141 145 149 151 146 152 160 163 167 164 179 212 195 183 223 322 278 258 231 228 204 202 209 209 218 215 232 163 165 213 204 216 221 226 224 218 220 190 183 204 197 193 196 185 184 182
100 108 112 119 124 127 129 132 135 140 143 150 153 154 157 165 173 206 110 159 180 155 130 291 269 251 187 181 172 171 175 191 206 195 147 140 143 123 255 225 216 227 212 215 201 211 218 220 193 185 187 182 174 172
99 105 120 129 129 131 134 133 133 136 140 142 146 149 152 171 170 189 180 158 165 163 173 190 282 192 172 172 118 98 174 150 170 147 176 158 160 221 264 267 221 204 196 206 202 220 188 193 184 181 180 179 179 168
98 100 116 131 136 137 141 143 142 142 142 142 144 156 137 182 173 190 145 140 189 216 220 201 212 245 120 220 149 94 228 139 160 183 141 195 222 277 346 302 279 214 211 199 167 170 169 171 173 170 170 171 176 169
101 110 115 120 130 138 143 143 143 143 146 133 146 106 131 151 151 168 153 195 195 220 207 229 202 187 73 97 123 114 186 29 154 180 175 198 218 0 2 101 157 184 187 181 213 213 194 196 182 171 168 170 170 168
109 118 120 115 120 142 136 141 143 139 143 143 129 130 140 160 124 172 187 169 203 215 195 175 196 157 118 89 71 13 64 92 221 141 123 160 25 359 90 111 128 150 169 164 151 122 134 190 187 170 167 165 165 165
115 123 118 116 121 132 132 118 146 164 132 132 129 124 165 49 165 220 185 179 172 326 329 167 103 123 115 115 76 81 156 242 273 57 72 29 343 41 103 127 134 132 199 137 135 143 157 169 166 171 156 151 153 150
126 131 131 129 135 146 159 123 136 179 34 60 95 94 45 8 332 12 300 351 318 337 41 113 76 77 79 67 93 132 130 353 49 65 63 10 356 47 98 120 134 123 129 135 149 154 151 154 151 149 151 152 151 145
136 138 144 146 152 161 175 164 45 53 83 62 32 49 37 10 8 344 354 50 22 38 93 104 78 75 39 73 19 42 51 50 21 23 348 334 9 66 82 109 119 128 137 137 140 138 140 140 136 132 134 138 144 146
166 165 165 160 165 170 185 198 317 10 66 70 40 360 342 18 2 7 359 358 16 28 61 46 64 65 45 31 46 14 48 40 351 318 324 7 42 66 98 107 107 110 112 117 121 126 129 132 132 132 133 138 147 149
132 147 159 161 165 173 205 231 18 37 42 45 35 23 27 8 346 350 346 339 8 37 46 41 47 25 16 48 41 20 29 335 324 340 23 50 71 84 94 97 99 105 111 115 117 118 119 125 131 136 135 134 146 152
145 141 158 180 170 158 85 50 65 60 58 28 56 27 49 39 18 14 13 23 54 68 50 58 53 37 38 42 28 356 334 334 21 34 54 68 81 88 92 96 100 104 105 109 113 116 120 126 130 127 132 133 141 144
149 149 150 144 132 122 93 53 52 84 46 48 33 48 53 41 36 42 45 50 71 82 86 63 52 40 41 15 332 341 346 10 26 56 68 76 86 92 97 100 101 103 105 106 109 109 110 112 111 117 124 134 149 147
151 126 136 144 119 85 77 56 63 77 64 83 65 58 57 41 37 42 44 44 53 59 48 51 42 24 23 15 23 20 41 89 82 72 67 71 75 83 84 89 92 96 98 99 100 103 103 102 102 105 111 113 110 105
132 126 101 73 63 68 82 66 66 104 119 88 79 64 71 48 43 39 40 46 55 42 62 55 63 61 70 72 69 71 75 81 82 86 83 81 83 87 87 89 93 95 93 91 90 88 87 83 79 74 65 54 33 356
126 119 103 74 70 64 62 40 86 96 81 102 55 58 51 35 34 33 43 42 57 40 49 57 62 70 70 68 74 77 82 86 87 90 91 91 85 83 82 83 82 83 82 78 74 71 68 63 50 33 13 357 338 323
133 123 69 52 77 67 44 34 57 35 63 29 38 45 33 43 39 32 61 36 43 38 60 71 80 84 86 86 87 84 82 84 83 81 80 81 82 82 81 78 75 75 73 67 57 49 40 29 14 5 357 347 339 332
91 56 42 49 52 76 65 37 47 48 54 34 57 62 44 48 56 64 66 42 23 51 68 80 91 92 89 82 76 76 78 78 85 86 80 77 77 74 70 68 64 62 58 49 40 32 22 12 5 356 350 345 341 338
69 19 39 19 35 67 47 27 14 46 57 22 68 47 11 52 69 68 74 64 36 50 59 68 77 80 83 83 82 80 78 74 77 82 76 69 66 66 63 57 51 47 40 24 15 8 1 355 352 350 349 346 344 343
72 26 49 32 17 66 38 67 44 68 55 54 47 55 50 66 62 62 69 60 57 56 57 61 67 82 86 86 88 85 78 70 67 70 71 60 54 46 41 29 20 11 6 2 358 355 355 354 353 352 352 350 348 346
62 31 46 41 80 90 77 69 66 65 55 42 22 41 57 67 84 76 101 97 91 76 68 64 68 76 85 87 84 80 76 63 51 52 49 37 24 17 10 6 4 2 1 358 356 354 353 351 348 347 345 343 340 336
71 51 70 20 65 47 96 59 53 58 49 43 78 45 105 149 134 126 126 122 106 87 73 72 75 79 86 85 77 65 50 43 37 27 11 3 359 359 359 0 1 360 355 351 351 350 349 348 348 346 344 343 342 340
52 79 79 40 60 54 41 47 73 56 29 49 102 109 110 101 129 138 144 138 123 74 33 53 84 87 81 75 66 51 34 19 6 347 346 351 355 353 354 354 352 351 352 352 350 347 345 347 347 346 346 345 345 344
48 45 93 56 61 49 23 48 88 88 94 102 102 111 102 103 115 138 143 144 137 104 79 88 96 89 77 49 16 357 348 344 344 346 350 351 352 351 352 353 352 349 347 347 348 350 349 349 347 347 346 345 346 347
88 73 72 66 83 107 107 95 96 94 92 95 117 118 118 123 134 140 155 170 175 158 105 86 88 358 343 345 337 336 343 344 347 350 353 351 350 350 350 348 347 346 347 348 349 349 349 349 349 350 349 348 347 346
50 74 115 104 116 157 103 85 86 90 84 77 84 106 121 137 165 179 187 185 151 103 136 274 308 322 326 331 336 342 344 349 352 352 352 350 348 345 344 343 343 343 342 342 344 345 346 347 347 346 346 345 344 342
82 83 93 97 119 177 200 138 90 93 84 89 105 133 140 158 170 186 183 175 150 138 333 331 340 344 337 335 340 344 345 346 346 345 343 341 341 340 339 339 339 337 335 336 338 340 341 341 341 341 341 341 340 339
Height
1183 1175 1167 1173 1182 1191 1201 1212 1224 1236 1250 1262 1275 1289 1306 1322 1336 1350 1360 1369 1377 1381 1383 1383 1385 1386 1392 1399 1408 1416 1427 1425 1431 1434 1436 1434 1438 1430 1431 1433 1433 1431 1442 1450 1460 1454 1446 1429 1437 1440 1426 1425 1427 1430
1188 1184 1182 1185 1191 1198 1207 1217 1228 1240 1250 1264 1278 1293 1308 1322 1336 1348 1361 1370 1376 1380 1380 1383 1382 1385 1389 1394 1403 1407 1402 1410 1415 1422 1428 1431 1432 1437 1423 1426 1428 1428 1420 1424 1427 1424 1417 1418 1415 1418 1419 1421 1423 1427
1194 1191 1192 1195 1201 1208 1216 1225 1234 1245 1257 1270 1284 1297 1311 1325 1337 1348 1360 1368 1375 1383 1381 1378 1376 1384 1386 1388 1394 1397 1401 1401 1402 1405 1411 1414 1422 1422 1424 1423 1421 1419 1416 1416 1419 1412 1410 1411 1413 1415 1416 1417 1419 1423
1209 1203 1201 1205 1211 1218 1225 1233 1242 1253 1265 1279 1292 1305 1318 1329 1341 1352 1361 1369 1379 1385 1389 1382 1378 1379 1381 1383 1386 1391 1394 1398 1399 1401 1402 1407 1413 1408 1412 1408 1412 1411 1412 1414 1413 1408 1410 1408 1406 1409 1412 1414 1417 1422
1225 1221 1219 1219 1222 1228 1235 1244 1253 1265 1276 1288 1299 1312 1324 1336 1345 1356 1366 1371 1378 1384 1378 1372 1372 1374 1376 1377 1380 1385 1390 1394 1395 1399 1401 1401 1401 1407 1410 1409 1408 1400 1402 1406 1402 1390 1392 1392 1396 1402 1406 1408 1413 1417
1241 1238 1238 1239 1241 1245 1252 1259 1267 1277 1287 1297 1308 1320 1330 1341 1350 1361 1370 1371 1373 1378 1379 1375 1365 1366 1369 1370 1374 1378 1383 1388 1392 1392 1393 1393 1394 1398 1402 1397 1387 1388 1389 1387 1387 1386 1392 1392 1392 1396 1400 1403 1408 1412
1253 1253 1253 1255 1258 1262 1267 1273 1281 1289 1298 1307 1317 1328 1337 1346 1353 1360 1363 1360 1370 1378 1380 1379 1373 1363 1364 1366 1368 1373 1378 1382 1387 1390 1389 1390 1393 1394 1396 1386 1379 1379 1382 1384 1385 1384 1391 1391 1391 1395 1400 1401 1405 1411
1263 1263 1265 1267 1270 1274 1279 1285 1292 1299 1307 1316 1325 1334 1342 1350 1358 1359 1360 1361 1370 1376 1378 1378 1371 1363 1362 1362 1364 1366 1370 1377 1380 1381 1385 1387 1393 1394 1388 1374 1374 1375 1379 1384 1381 1384 1381 1387 1389 1391 1396 1400 1404 1407
1271 1272 1274 1277 1280 1285 1290 1295 1302 1308 1315 1323 1331 1340 1349 1352 1355 1358 1362 1365 1370 1375 1376 1375 1368 1360 1359 1361 1362 1362 1366 1373 1377 1378 1380 1385 1389 1384 1374 1373 1371 1369 1373 1376 1380 1383 1380 1384 1383 1389 1391 1398 1401 1406
1280 1280 1281 1284 1288 1293 1298 1304 1310 1316 1323 1331 1338 1342 1347 1350 1354 1359 1365 1367 1371 1369 1367 1366 1364 1357 1360 1362 1364 1365 1365 1366 1370 1374 1376 1378 1376 1376 1375 1374 1373 1374 1375 1378 1377 1384 1382 1382 1385 1389 1395 1401 1408 1410
1288 1289 1291 1294 1297 1301 1306 1312 1318 1324 1330 1335 1338 1340 1344 1352 1358 1360 1362 1363 1363 1359 1357 1352 1355 1356 1360 1357 1357 1360 1362 1366 1365 1368 1372 1372 1370 1376 1375 1373 1374 1377 1378 1379 1380 1380 1383 1387 1393 1391 1396 1399 1406 1415
1297 1299 1301 1303 1306 1310 1315 1320 1326 1331 1334 1336 1338 1344 1349 1351 1355 1359 1358 1358 1358 1353 1351 1351 1352 1353 1355 1355 1359 1363 1362 1368 1360 1364 1366 1368 1379 1379 1378 1376 1378 1380 1381 1379 1381 1378 1379 1392 1397 1391 1399 1405 1409 1415
1308 1310 1311 1314 1316 1320 1324 1329 1332 1335 1337 1339 1341 1344 1346 1351 1350 1349 1342 1345 1346 1346 1346 1347 1350 1350 1355 1359 1362 1363 1364 1362 1363 1361 1372 1384 1385 1382 1380 1379 1379 1379 1385 1376 1379 1379 1385 1393 1395 1400 1401 1408 1414 1420
1314 1317 1320 1322 1325 1329 1330 1333 1334 1338 1338 1341 1341 1347 1351 1352 1352 1350 1349 1345 1346 1345 1344 1344 1346 1349 1354 1359 1363 1362 1367 1368 1365 1370 1383 1391 1389 1386 1383 1381 1382 1382 1380 1380 1383 1387 1389 1397 1401 1403 1407 1412 1417 1422
1318 1322 1325 1328 1330 1333 1335 1337 1338 1339 1338 1343 1345 1353 1355 1356 1354 1352 1348 1346 1345 1344 1343 1345 1348 1352 1358 1361 1366 1365 1368 1380 1389 1393 1396 1394 1391 1385 1386 1387 1388 1389 1392 1393 1394 1395 1399 1403 1405 1409 1415 1420 1425 1429
1323 1325 1327 1330 1334 1337 1339 1340 1340 1341 1344 1352 1363 1365 1363 1359 1358 1354 1351 1348 1346 1345 1347 1349 1355 1361 1370 1377 1379 1393 1390 1405 1411 1409 1401 1395 1391 1391 1394 1394 1395 1396 1397 1398 1401 1403 1406 1409 1412 1416 1422 1427 1432 1436
1327 1327 1330 1334 1337 1340 1342 1346 1347 1349 1355 1365 1376 1374 1371 1370 1369 1366 1361 1357 1352 1352 1357 1361 1375 1388 1387 1393 1408 1415 1421 1423 1420 1413 1406 1402 1402 1401 1399 1399 1401 1403 1405 1407 1409 1412 1415 1417 1421 1426 1429 1433 1436 1440
1328 1331 1335 1338 1342 1346 1349 1352 1356 1365 1376 1383 1385 1387 1384 1380 1376 1369 1365 1358 1355 1359 1369 1384 1394 1404 1415 1421 1428 1432 1430 1425 1423 1417 1412 1409 1408 1407 1407 1408 1410 1411 1413 1416 1418 1420 1422 1425 1429 1432 1435 1438 1441 1444
1331 1333 1337 1341 1344 1347 1352 1361 1364 1379 1390 1391 1392 1390 1388 1388 1386 1381 1375 1371 1368 1369 1379 1397 1414 1427 1433 1437 1436 1432 1429 1427 1426 1422 1419 1417 1415 1415 1416 1417 1418 1419 1421 1423 1425 1427 1430 1433 1435 1439 1441 1443 1445 1446
1333 1337 1340 1342 1343 1346 1356 1367 1372 1382 1394 1399 1396 1395 1392 1395 1393 1387 1382 1380 1378 1382 1402 1424 1438 1443 1441 1440 1438 1435 1431 1429 1428 1425 1424 1424 1424 1423 1423 1424 1426 1428 1429 1431 1433 1435 1437 1438 1441 1442 1444 1446 1447 1448
1339 1341 1344 1345 1346 1352 1364 1372 1379 1388 1394 1398 1400 1400 1404 1404 1399 1398 1396 1399 1397 1419 1436 1446 1447 1447 1445 1443 1440 1437 1434 1432 1429 1429 1432 1431 1431 1430 1432 1433 1435 1435 1436 1438 1439 1441 1441 1443 1446 1447 1447 1448 1448 1449
1343 1345 1348 1351 1355 1364 1374 1381 1385 1390 1396 1401 1402 1405 1409 1413 1415 1418 1423 1421 1437 1448 1450 1451 1450 1449 1447 1445 1443 1443 1441 1440 1439 1439 1439 1439 1438 1439 1440 1442 1443 1443 1444 1445 1447 1448 1448 1449 1449 1449 1449 1449 1448 1447
1347 1349 1351 1355 1362 1375 1390 1388 1390 1396 1401 1406 1408 1413 1419 1423 1428 1429 1438 1450 1456 1457 1457 1456 1455 1454 1453 1453 1451 1449 1448 1447 1445 1446 1446 1446 1447 1448 1449 1450 1451 1451 1451 1452 1452 1452 1452 1451 1451 1450 1449 1447 1446 1444
1348 1351 1359 1366 1375 1388 1393 1396 1401 1405 1408 1413 1417 1425 1430 1433 1437 1445 1458 1464 1465 1462 1460 1459 1459 1459 1458 1456 1455 1455 1455 1455 1454 1453 1454 1455 1455 1455 1456 1456 1456 1456 1456 1456 1455 1454 1453 1451 1450 1448 1447 1445 1443 1441
1354 1375 1377 1386 1390 1394 1404 1410 1412 1413 1423 1423 1426 1432 1436 1437 1447 1459 1465 1469 1468 1466 1465 1464 1462 1461 1460 1461 1461 1461 1461 1461 1460 1459 1460 1460 1460 1461 1460 1460 1459 1458 1458 1457 1455 1453 1451 1450 1448 1446 1443 1441 1439 1437
1377 1391 1393 1397 1402 1404 1412 1419 1423 1427 1427 1430 1435 1438 1439 1445 1458 1466 1468 1470 1469 1468 1468 1467 1466 1465 1464 1464 1465 1464 1465 1465 1465 1463 1463 1463 1463 1462 1461 1461 1460 1458 1456 1454 1453 1451 1449 1447 1445 1443 1441 1439 1436 1434
1395 1402 1404 1406 1408 1410 1418 1423 1426 1429 1435 1438 1442 1445 1449 1463 1469 1468 1470 1470 1470 1469 1469 1469 1468 1467 1467 1466 1466 1466 1467 1467 1466 1465 1465 1465 1464 1462 1462 1460 1458 1456 1454 1452 1450 1448 1446 1444 1442 1439 1437 1436 1433 1431
1403 1408 1412 1414 1415 1419 1426 1432 1437 1442 1443 1444 1445 1456 1463 1466 1468 1469 1470 1471 1472 1472 1472 1472 1471 1470 1470 1469 1469 1469 1469 1468 1468 1467 1466 1465 1463 1462 1460 1458 1457 1455 1453 1451 1448 1446 1444 1442 1440 1437 1435 1433 1431 1428
1411 1414 1416 1422 1424 1430 1437 1441 1443 1445 1445 1445 1450 1458 1462 1464 1466 1468 1470 1472 1473 1473 1473 1473 1473 1472 1472 1471 1471 1471 1470 1469 1469 1467 1466 1464 1463 1461 1459 1457 1456 1454 1452 1450 1448 1445 1443 1440 1438 1436 1433 1431 1428 1426
1418 1419 1422 1430 1436 1445 1447 1445 1446 1446 1446 1447 1451 1457 1462 1465 1467 1469 1471 1472 1473 1473 1474 1474 1473 1473 1473 1473 1472 1471 1470 1469 1467 1466 1464 1462 1461 1460 1458 1456 1454 1452 1450 1448 1445 1443 1441 1439 1436 1434 1432 1430 1427 1424
1421 1423 1428 1436 1446 1451 1451 1451 1451 1451 1451 1453 1455 1457 1461 1467 1469 1470 1471 1472 1473 1473 1474 1474 1474 1474 1473 1472 1472 1470 1469 1468 1466 1464 1463 1461 1460 1458 1456 1454 1452 1450 1447 1445 1443 1441 1439 1437 1435 1432 1430 1428 1425 1423
1424 1427 1431 1441 1449 1452 1452 1452 1453 1455 1458 1459 1461 1463 1465 1467 1468 1470 1471 1472 1472 1473 1473 1473 1473 1473 1472 1471 1470 1469 1467 1466 1464 1463 1461 1459 1458 1456 1454 1452 1450 1448 1446 1444 1442 1440 1437 1435 1433 1431 1428 1426 1423 1420
1431 1433 1435 1440 1447 1450 1452 1452 1454 1458 1459 1461 1463 1464 1465 1466 1467 1469 1470 1471 1472 1472 1472 1472 1471 1471 1470 1469 1468 1466 1465 1464 1462 1460 1459 1457 1455 1453 1451 1449 1447 1445 1443 1441 1439 1437 1435 1433 1431 1429 1426 1424 1421 1418